Meteo pe oră la 1-e Maya

Astăzi, 15 Iunie, Marţi

Timp Temperatura Precipitaţii Vânt Presiune Umiditate
00:00 +18°C° 0 mm 1 m/s 750 mmHg 90%
01:00 +18°C° 0 mm 1 m/s 750 mmHg 90%
02:00 +16°C° 0 mm 0 m/s 750 mmHg 91%
03:00 +15°C° 0 mm 0 m/s 750 mmHg 92%
04:00 +16°C° 0 mm 0 m/s 750 mmHg 90%
05:00 +17°C° 0 mm 0 m/s 750 mmHg 89%
06:00 +18°C° 0 mm 0 m/s 750 mmHg 87%
07:00 +20°C° 0 mm 0 m/s 750 mmHg 79%
08:00 +22°C° 0 mm 0 m/s 750 mmHg 71%
09:00 +26°C° 0 mm 1 m/s 750 mmHg 63%
10:00 +26°C° 0.7 mm 1 m/s 749 mmHg 63%
11:00 +27°C° 0.7 mm 1 m/s 749 mmHg 62%
12:00 +27°C° 0.7 mm 2 m/s 749 mmHg 61%
13:00 +27°C° 0.1 mm 1 m/s 749 mmHg 58%
14:00 +28°C° 0.1 mm 1 m/s 748 mmHg 56%
15:00 +28°C° 0.1 mm 1 m/s 748 mmHg 53%
16:00 +27°C° 0.2 mm 1 m/s 748 mmHg 58%
17:00 +27°C° 0.2 mm 1 m/s 747 mmHg 63%
18:00 +26°C° 0.2 mm 1 m/s 747 mmHg 69%
19:00 +24°C° 0.5 mm 1 m/s 747 mmHg 74%
20:00 +22°C° 0.5 mm 1 m/s 747 mmHg 80%
21:00 +21°C° 0.5 mm 1 m/s 747 mmHg 86%
22:00 +20°C° 0.1 mm 1 m/s 747 mmHg 88%
23:00 +19°C° 0.1 mm 1 m/s 746 mmHg 90%

Mâine, 16 Iunie, Miercuri

Timp Temperatura Precipitaţii Vânt Presiune Umiditate
00:00 +17°C° 0.1 mm 0 m/s 746 mmHg 91%
01:00 +16°C° 0.2 mm 0 m/s 746 mmHg 92%
02:00 +16°C° 0.2 mm 0 m/s 746 mmHg 93%
03:00 +16°C° 0.2 mm 0 m/s 746 mmHg 93%
04:00 +16°C° 0 mm 0 m/s 746 mmHg 93%
05:00 +19°C° 0 mm 1 m/s 746 mmHg 92%
06:00 +20°C° 0 mm 1 m/s 746 mmHg 91%
07:00 +22°C° 0 mm 1 m/s 747 mmHg 83%
08:00 +23°C° 0 mm 2 m/s 747 mmHg 75%
09:00 +25°C° 0 mm 2 m/s 747 mmHg 67%
10:00 +26°C° 0.3 mm 2 m/s 747 mmHg 65%
11:00 +26°C° 0.3 mm 3 m/s 747 mmHg 64%
12:00 +27°C° 0.3 mm 3 m/s 747 mmHg 62%
13:00 +27°C° 0.6 mm 4 m/s 747 mmHg 61%
14:00 +27°C° 0.6 mm 4 m/s 748 mmHg 59%
15:00 +27°C° 0.6 mm 5 m/s 748 mmHg 58%
16:00 +26°C° 0.1 mm 4 m/s 748 mmHg 59%
17:00 +26°C° 0.1 mm 4 m/s 748 mmHg 60%
18:00 +25°C° 0.1 mm 4 m/s 749 mmHg 61%
19:00 +22°C° 0 mm 3 m/s 749 mmHg 66%
20:00 +21°C° 0 mm 3 m/s 750 mmHg 72%
21:00 +19°C° 0 mm 3 m/s 751 mmHg 78%
22:00 +17°C° 0 mm 2 m/s 751 mmHg 78%
23:00 +16°C° 0 mm 2 m/s 752 mmHg 79%

Poimâine, 17 Iunie, Joi

Timp Temperatura Precipitaţii Vânt Presiune Umiditate
00:00 +15°C° 0 mm 2 m/s 752 mmHg 79%
01:00 +14°C° 0 mm 2 m/s 753 mmHg 77%
02:00 +13°C° 0 mm 2 m/s 753 mmHg 75%
03:00 +12°C° 0 mm 2 m/s 753 mmHg 73%
04:00 +13°C° 0 mm 2 m/s 754 mmHg 72%
05:00 +14°C° 0 mm 2 m/s 754 mmHg 71%
06:00 +14°C° 0 mm 2 m/s 755 mmHg 70%
07:00 +16°C° 0 mm 2 m/s 755 mmHg 61%
08:00 +18°C° 0 mm 3 m/s 755 mmHg 53%
09:00 +20°C° 0 mm 3 m/s 756 mmHg 45%
10:00 +21°C° 0 mm 3 m/s 756 mmHg 41%
11:00 +22°C° 0 mm 4 m/s 756 mmHg 37%
12:00 +23°C° 0 mm 4 m/s 756 mmHg 33%
13:00 +25°C° 0 mm 4 m/s 756 mmHg 34%
14:00 +25°C° 0 mm 4 m/s 756 mmHg 35%
15:00 +25°C° 0 mm 4 m/s 757 mmHg 36%
16:00 +25°C° 0 mm 4 m/s 757 mmHg 41%
17:00 +24°C° 0 mm 3 m/s 757 mmHg 46%
18:00 +24°C° 0 mm 3 m/s 757 mmHg 50%
19:00 +20°C° 0 mm 3 m/s 757 mmHg 58%
20:00 +18°C° 0 mm 2 m/s 757 mmHg 66%
21:00 +16°C° 0 mm 2 m/s 758 mmHg 74%
22:00 +16°C° 0 mm 1 m/s 758 mmHg 74%
23:00 +15°C° 0 mm 1 m/s 758 mmHg 75%

18 Iunie, Vineri

Timp Temperatura Precipitaţii Vânt Presiune Umiditate
00:00 +14°C° 0 mm 1 m/s 758 mmHg 76%
01:00 +14°C° 0 mm 1 m/s 758 mmHg 77%
02:00 +14°C° 0 mm 1 m/s 759 mmHg 78%
03:00 +13°C° 0 mm 1 m/s 759 mmHg 78%
04:00 +14°C° 0 mm 1 m/s 759 mmHg 76%
05:00 +15°C° 0 mm 1 m/s 760 mmHg 74%
06:00 +15°C° 0 mm 0 m/s 760 mmHg 73%
07:00 +19°C° 0 mm 1 m/s 760 mmHg 67%
08:00 +21°C° 0 mm 1 m/s 760 mmHg 61%
09:00 +23°C° 0 mm 1 m/s 760 mmHg 55%
10:00 +24°C° 0 mm 1 m/s 760 mmHg 51%
11:00 +26°C° 0 mm 1 m/s 760 mmHg 47%
12:00 +27°C° 0 mm 1 m/s 760 mmHg 42%
13:00 +27°C° 0 mm 1 m/s 760 mmHg 42%
14:00 +28°C° 0 mm 1 m/s 759 mmHg 41%
15:00 +28°C° 0 mm 1 m/s 759 mmHg 41%
16:00 +27°C° 0 mm 1 m/s 759 mmHg 46%
17:00 +27°C° 0 mm 1 m/s 759 mmHg 52%
18:00 +26°C° 0 mm 2 m/s 759 mmHg 58%
19:00 +24°C° 0 mm 2 m/s 759 mmHg 66%
20:00 +21°C° 0 mm 2 m/s 759 mmHg 74%
21:00 +19°C° 0 mm 2 m/s 759 mmHg 82%
22:00 +18°C° 0 mm 2 m/s 760 mmHg 84%
23:00 +17°C° 0 mm 2 m/s 760 mmHg 86%

19 Iunie, Sâmbătă

Timp Temperatura Precipitaţii Vânt Presiune Umiditate
00:00 +17°C° 0 mm 2 m/s 760 mmHg 87%
01:00 +16°C° 0 mm 2 m/s 760 mmHg 88%
02:00 +16°C° 0 mm 1 m/s 760 mmHg 89%
03:00 +15°C° 0 mm 1 m/s 760 mmHg 89%
04:00 +16°C° 0 mm 1 m/s 761 mmHg 86%
05:00 +18°C° 0 mm 1 m/s 761 mmHg 82%
06:00 +19°C° 0 mm 1 m/s 761 mmHg 79%
07:00 +21°C° 0 mm 1 m/s 761 mmHg 72%
08:00 +23°C° 0 mm 2 m/s 761 mmHg 65%
09:00 +24°C° 0 mm 2 m/s 761 mmHg 58%
10:00 +25°C° 0 mm 2 m/s 761 mmHg 54%
11:00 +26°C° 0 mm 2 m/s 760 mmHg 51%
12:00 +27°C° 0 mm 3 m/s 760 mmHg 48%
13:00 +27°C° 0 mm 3 m/s 760 mmHg 48%
14:00 +28°C° 0 mm 3 m/s 759 mmHg 48%
15:00 +28°C° 0 mm 3 m/s 759 mmHg 48%
16:00 +27°C° 0 mm 3 m/s 759 mmHg 52%
17:00 +27°C° 0 mm 3 m/s 759 mmHg 56%
18:00 +26°C° 0 mm 2 m/s 758 mmHg 60%
19:00 +24°C° 0 mm 2 m/s 758 mmHg 69%
20:00 +23°C° 0 mm 2 m/s 758 mmHg 78%
21:00 +20°C° 0 mm 2 m/s 758 mmHg 86%
22:00 +19°C° 0 mm 2 m/s 758 mmHg 89%
23:00 +18°C° 0 mm 2 m/s 758 mmHg 91%

20 Iunie, Duminică

Timp Temperatura Precipitaţii Vânt Presiune Umiditate
00:00 +17°C° 0 mm 2 m/s 758 mmHg 93%
01:00 +17°C° 0 mm 2 m/s 759 mmHg 94%
02:00 +17°C° 0 mm 2 m/s 759 mmHg 94%
03:00 +16°C° 0 mm 2 m/s 759 mmHg 95%
04:00 +18°C° 0 mm 1 m/s 759 mmHg 91%
05:00 +19°C° 0 mm 1 m/s 759 mmHg 87%
06:00 +20°C° 0 mm 1 m/s 759 mmHg 84%
07:00 +22°C° 0 mm 1 m/s 759 mmHg 77%
08:00 +23°C° 0 mm 1 m/s 759 mmHg 69%
09:00 +25°C° 0 mm 1 m/s 759 mmHg 62%
10:00 +27°C° 0 mm 1 m/s 758 mmHg 58%
11:00 +28°C° 0 mm 1 m/s 758 mmHg 54%
12:00 +29°C° 0 mm 1 m/s 758 mmHg 50%
13:00 +29°C° 0 mm 1 m/s 758 mmHg 48%
14:00 +30°C° 0 mm 2 m/s 757 mmHg 47%
15:00 +30°C° 0 mm 2 m/s 757 mmHg 46%
16:00 +29°C° 0 mm 2 m/s 757 mmHg 51%
17:00 +29°C° 0 mm 2 m/s 757 mmHg 56%
18:00 +28°C° 0 mm 2 m/s 756 mmHg 60%
19:00 +26°C° 0 mm 2 m/s 756 mmHg 68%
20:00 +24°C° 0 mm 2 m/s 756 mmHg 75%
21:00 +21°C° 0 mm 2 m/s 756 mmHg 83%
22:00 +21°C° 0 mm 1 m/s 756 mmHg 84%
23:00 +21°C° 0 mm 1 m/s 756 mmHg 86%
Arată mai mult

Formular de consimțământ

Meteoprog și furnizorii noștri de servicii pot stoca și accesa date personale, precum cookies, identificatori de dispozitiv sau alte tehnologii similare pe dispozitivul dumneavoastră și procesa astfel de date pentru a personaliza conținutul și reclamele, dar și pentru a oferi caracteristici de social media și pentru a analiza traficul.

  • Stocarea și/sau accesarea informațiilor pe dispozitivul dumneavoastră

    Cookies, identificatori de dispozitiv sau alte informații pot fi stocate sau accesate pe dispozitiv în scopurile indicate mai sus.

  • Reclame și conținut personalizat, evaluarea reclamelor și a conținutului, informații despre audiențe și dezvoltarea produselor

    Reclamele și conținutul pot fi personalizate pe baza unui profil. Pot fi adăugate date suplimentare pentru a personaliza mai bine reclamele și conținutul. Performanța reclamelor și conținutului poate fi măsurată. Pot fi obținute informații despre utilizatorii care au văzut reclamele și conținutul. Aceste date pot fi utilizate pentru a dezvolta sau îmbunătăți experiența utilizatorilor, sistemele și software-ul.

Dând clic pe ‘Sunt de acord’, permiteți utilizarea cookie-urilor menționate, a identificatorilor de dispozitiv, balizelor web sau altor tehnologii similare. Setările pot fi modificate din browser-ul dispozitivului dumneavoastră.

În anumite scopuri, interesele legitime pot prima asupra consimțământului. Puteți citi mai multe informații în acest sens în Politica privind Confidențialitatea Datelor și Cookie.